Time,TemperatureF,DewpointF,PressureIn,WindDirection,WindDirectionDegrees,WindSpeedMPH,WindSpeedGustMPH,Humidity,HourlyPrecipIn,Conditions,Clouds,dailyrainin,SoftwareType,DateUTC
2013-08-06 00:02:00,66.2,46.5,32.78,North,0,0.0,0.0,49,0.00,,,-99.99,pyweather 0.1,2013-08-06 07:02:00,
2013-08-06 00:10:00,66.0,46.9,32.78,North,0,0.0,0.0,50,0.00,,,-99.99,pyweather 0.1,2013-08-06 07:10:00,
2013-08-06 00:18:00,65.8,46.7,32.78,North,0,0.0,0.0,50,0.00,,,-99.99,pyweather 0.1,2013-08-06 07:18:00,
2013-08-06 00:26:00,65.8,46.7,32.78,North,0,0.0,0.0,50,0.00,,,-99.99,pyweather 0.1,2013-08-06 07:26:00,
2013-08-06 00:34:00,65.5,46.4,32.78,North,0,0.0,0.0,50,0.00,,,-99.99,pyweather 0.1,2013-08-06 07:34:00,
2013-08-06 00:43:00,65.1,46.0,32.78,North,0,0.0,0.0,50,0.00,,,-99.99,pyweather 0.1,2013-08-06 07:43:00,
2013-08-06 00:51:00,64.9,46.4,32.78,North,0,0.0,0.0,51,0.00,,,-99.99,pyweather 0.1,2013-08-06 07:51:00,
2013-08-06 00:59:00,64.4,45.9,32.78,North,0,0.0,0.0,51,0.00,,,-99.99,pyweather 0.1,2013-08-06 07:59:00,
2013-08-06 01:07:00,64.2,46.2,32.78,North,0,0.0,0.0,52,0.00,,,-99.99,pyweather 0.1,2013-08-06 08:07:00,
2013-08-06 01:15:00,63.9,45.9,32.78,North,0,0.0,0.0,52,0.00,,,-99.99,pyweather 0.1,2013-08-06 08:15:00,
2013-08-06 01:23:00,63.5,46.1,32.78,North,0,0.0,0.0,53,0.00,,,-99.99,pyweather 0.1,2013-08-06 08:23:00,
2013-08-06 01:31:00,63.1,45.8,32.78,North,0,0.0,0.0,53,0.00,,,-99.99,pyweather 0.1,2013-08-06 08:31:00,
2013-08-06 01:39:00,62.6,45.7,32.78,North,0,0.0,0.0,54,0.00,,,-99.99,pyweather 0.1,2013-08-06 08:39:00,
2013-08-06 01:47:00,62.4,46.1,32.78,North,0,0.0,0.0,55,0.00,,,-99.99,pyweather 0.1,2013-08-06 08:47:00,
2013-08-06 01:55:00,62.2,45.9,32.78,North,0,0.0,0.0,55,0.00,,,-99.99,pyweather 0.1,2013-08-06 08:55:00,
2013-08-06 02:03:00,62.1,45.7,32.78,North,0,0.0,0.0,55,0.00,,,-99.99,pyweather 0.1,2013-08-06 09:03:00,
2013-08-06 02:11:00,61.9,45.5,32.78,North,0,0.0,0.0,55,0.00,,,-99.99,pyweather 0.1,2013-08-06 09:11:00,
2013-08-06 02:19:00,61.5,45.7,32.78,North,0,0.0,0.0,56,0.00,,,-99.99,pyweather 0.1,2013-08-06 09:19:00,
2013-08-06 02:27:00,61.2,45.8,32.78,North,0,0.0,0.0,57,0.00,,,-99.99,pyweather 0.1,2013-08-06 09:27:00,
2013-08-06 02:35:00,60.8,46.0,32.78,North,0,0.0,0.0,58,0.00,,,-99.99,pyweather 0.1,2013-08-06 09:35:00,
2013-08-06 02:43:00,60.4,46.1,32.78,North,0,0.0,0.0,59,0.00,,,-99.99,pyweather 0.1,2013-08-06 09:43:00,
2013-08-06 02:51:00,60.1,46.2,32.78,North,0,0.0,0.0,60,0.00,,,-99.99,pyweather 0.1,2013-08-06 09:51:00,
2013-08-06 02:59:00,60.1,46.2,32.78,North,0,0.0,0.0,60,0.00,,,-99.99,pyweather 0.1,2013-08-06 09:59:00,
2013-08-06 03:07:00,59.7,45.8,32.78,North,0,0.0,0.0,60,0.00,,,-99.99,pyweather 0.1,2013-08-06 10:07:00,
2013-08-06 03:15:00,59.7,45.8,32.78,North,0,0.0,0.0,60,0.00,,,-99.99,pyweather 0.1,2013-08-06 10:15:00,
2013-08-06 03:23:00,59.5,46.1,32.78,North,0,0.0,0.0,61,0.00,,,-99.99,pyweather 0.1,2013-08-06 10:23:00,
2013-08-06 03:31:00,59.4,45.9,32.78,North,0,0.0,0.0,61,0.00,,,-99.99,pyweather 0.1,2013-08-06 10:31:00,
2013-08-06 03:39:00,59.0,46.0,32.78,North,0,0.0,0.0,62,0.00,,,-99.99,pyweather 0.1,2013-08-06 10:39:00,
2013-08-06 03:48:00,58.8,46.3,32.78,North,0,0.0,0.0,63,0.00,,,-99.99,pyweather 0.1,2013-08-06 10:48:00,
2013-08-06 03:56:00,58.5,46.3,32.78,North,0,0.0,0.0,64,0.00,,,-99.99,pyweather 0.1,2013-08-06 10:56:00,
2013-08-06 04:04:00,58.3,46.2,32.78,North,0,0.0,0.0,64,0.00,,,-99.99,pyweather 0.1,2013-08-06 11:04:00,
2013-08-06 04:12:00,58.1,46.4,32.78,North,0,0.0,0.0,65,0.00,,,-99.99,pyweather 0.1,2013-08-06 11:12:00,
2013-08-06 04:20:00,57.9,46.2,32.78,North,0,0.0,0.0,65,0.00,,,-99.99,pyweather 0.1,2013-08-06 11:20:00,
2013-08-06 04:28:00,57.7,46.5,32.78,North,0,0.0,0.0,66,0.00,,,-99.99,pyweather 0.1,2013-08-06 11:28:00,
2013-08-06 04:36:00,57.6,46.3,32.78,North,0,0.0,0.0,66,0.00,,,-99.99,pyweather 0.1,2013-08-06 11:36:00,
2013-08-06 04:44:00,57.6,46.3,32.78,North,0,0.0,0.0,66,0.00,,,-99.99,pyweather 0.1,2013-08-06 11:44:00,
2013-08-06 04:52:00,57.4,46.1,32.78,North,0,0.0,0.0,66,0.00,,,-99.99,pyweather 0.1,2013-08-06 11:52:00,
2013-08-06 05:00:00,57.2,46.0,32.78,North,0,0.0,0.0,66,0.00,,,-99.99,pyweather 0.1,2013-08-06 12:00:00,
2013-08-06 05:08:00,57.2,46.0,32.78,North,0,0.0,0.0,66,0.00,,,-99.99,pyweather 0.1,2013-08-06 12:08:00,
2013-08-06 05:16:00,57.0,46.2,32.78,North,0,0.0,0.0,67,0.00,,,-99.99,pyweather 0.1,2013-08-06 12:16:00,
2013-08-06 05:24:00,56.8,46.4,32.78,North,0,0.0,0.0,68,0.00,,,-99.99,pyweather 0.1,2013-08-06 12:24:00,
2013-08-06 05:32:00,56.7,46.2,32.78,North,0,0.0,0.0,68,0.00,,,-99.99,pyweather 0.1,2013-08-06 12:32:00,
2013-08-06 05:40:00,56.7,46.6,32.78,North,0,0.0,0.0,69,0.00,,,-99.99,pyweather 0.1,2013-08-06 12:40:00,
2013-08-06 05:48:00,56.5,46.5,32.78,North,0,0.0,0.0,69,0.00,,,-99.99,pyweather 0.1,2013-08-06 12:48:00,
2013-08-06 05:56:00,56.3,46.3,32.78,North,0,0.0,0.0,69,0.00,,,-99.99,pyweather 0.1,2013-08-06 12:56:00,
2013-08-06 06:04:00,56.5,46.8,32.78,North,0,0.0,0.0,70,0.00,,,-99.99,pyweather 0.1,2013-08-06 13:04:00,
2013-08-06 06:12:00,56.3,46.3,32.78,North,0,0.0,0.0,69,0.00,,,-99.99,pyweather 0.1,2013-08-06 13:12:00,
2013-08-06 06:20:00,56.3,46.7,32.81,North,0,0.0,0.0,70,0.00,,,-99.99,pyweather 0.1,2013-08-06 13:20:00,
2013-08-06 06:28:00,56.3,47.0,32.81,North,0,0.0,0.0,71,0.00,,,-99.99,pyweather 0.1,2013-08-06 13:28:00,
2013-08-06 06:36:00,56.3,47.0,32.81,North,0,0.0,0.0,71,0.00,,,-99.99,pyweather 0.1,2013-08-06 13:36:00,
2013-08-06 06:44:00,56.5,47.2,32.81,North,0,0.0,0.0,71,0.00,,,-99.99,pyweather 0.1,2013-08-06 13:44:00,
2013-08-06 06:53:00,56.8,47.5,32.81,North,0,0.0,0.0,71,0.00,,,-99.99,pyweather 0.1,2013-08-06 13:53:00,
2013-08-06 07:01:00,57.0,47.7,32.81,North,0,0.0,0.0,71,0.00,,,-99.99,pyweather 0.1,2013-08-06 14:01:00,
2013-08-06 07:09:00,57.4,48.1,32.81,North,0,0.0,0.0,71,0.00,,,-99.99,pyweather 0.1,2013-08-06 14:09:00,
2013-08-06 07:17:00,57.9,48.6,32.81,North,0,0.0,0.0,71,0.00,,,-99.99,pyweather 0.1,2013-08-06 14:17:00,
2013-08-06 07:25:00,58.5,49.1,32.78,North,0,0.0,0.0,71,0.00,,,-99.99,pyweather 0.1,2013-08-06 14:25:00,
2013-08-06 07:33:00,59.0,49.2,32.81,North,0,0.0,0.0,70,0.00,,,-99.99,pyweather 0.1,2013-08-06 14:33:00,
2013-08-06 07:41:00,59.4,49.6,32.81,North,0,0.0,0.0,70,0.00,,,-99.99,pyweather 0.1,2013-08-06 14:41:00,
2013-08-06 07:49:00,59.9,49.7,32.81,North,0,0.0,0.0,69,0.00,,,-99.99,pyweather 0.1,2013-08-06 14:49:00,
2013-08-06 07:57:00,60.4,49.8,32.81,North,0,0.0,0.0,68,0.00,,,-99.99,pyweather 0.1,2013-08-06 14:57:00,
2013-08-06 08:05:00,61.0,49.5,32.81,North,0,0.0,0.0,66,0.00,,,-99.99,pyweather 0.1,2013-08-06 15:05:00,
2013-08-06 08:13:00,61.5,50.1,32.81,North,0,0.0,0.0,66,0.00,,,-99.99,pyweather 0.1,2013-08-06 15:13:00,
2013-08-06 08:21:00,62.2,50.3,32.81,North,0,0.0,0.0,65,0.00,,,-99.99,pyweather 0.1,2013-08-06 15:21:00,
2013-08-06 08:29:00,63.1,50.3,32.81,North,0,0.0,0.0,63,0.00,,,-99.99,pyweather 0.1,2013-08-06 15:29:00,
2013-08-06 08:37:00,64.0,50.8,32.81,North,0,0.0,0.0,62,0.00,,,-99.99,pyweather 0.1,2013-08-06 15:37:00,
2013-08-06 08:45:00,64.6,50.4,32.81,North,0,0.0,0.0,60,0.00,,,-99.99,pyweather 0.1,2013-08-06 15:45:00,
2013-08-06 08:53:00,65.1,50.5,32.81,North,0,0.0,0.0,59,0.00,,,-99.99,pyweather 0.1,2013-08-06 15:53:00,
2013-08-06 09:01:00,65.5,49.9,32.81,North,0,0.0,0.0,57,0.00,,,-99.99,pyweather 0.1,2013-08-06 16:01:00,
2013-08-06 09:09:00,65.7,49.6,32.81,North,0,0.0,0.0,56,0.00,,,-99.99,pyweather 0.1,2013-08-06 16:09:00,
2013-08-06 09:17:00,65.8,50.2,32.81,North,0,0.0,0.0,57,0.00,,,-99.99,pyweather 0.1,2013-08-06 16:17:00,
2013-08-06 09:25:00,66.2,49.1,32.81,North,0,0.0,0.0,54,0.00,,,-99.99,pyweather 0.1,2013-08-06 16:25:00,
2013-08-06 09:33:00,66.4,48.2,32.81,North,0,0.0,0.0,52,0.00,,,-99.99,pyweather 0.1,2013-08-06 16:33:00,
2013-08-06 09:41:00,66.7,48.1,32.81,North,0,0.0,0.0,51,0.00,,,-99.99,pyweather 0.1,2013-08-06 16:41:00,
2013-08-06 09:49:00,66.9,47.7,32.81,North,0,0.0,0.0,50,0.00,,,-99.99,pyweather 0.1,2013-08-06 16:49:00,
2013-08-06 09:57:00,67.1,48.4,32.81,North,0,0.0,0.0,51,0.00,,,-99.99,pyweather 0.1,2013-08-06 16:57:00,
2013-08-06 10:05:00,67.5,48.7,32.81,North,0,0.0,0.0,51,0.00,,,-99.99,pyweather 0.1,2013-08-06 17:05:00,
2013-08-06 10:13:00,68.2,48.8,32.81,North,0,0.0,0.0,50,0.00,,,-99.99,pyweather 0.1,2013-08-06 17:13:00,
2013-08-06 10:21:00,68.5,48.6,32.81,North,0,0.0,0.0,49,0.00,,,-99.99,pyweather 0.1,2013-08-06 17:21:00,
2013-08-06 10:29:00,69.3,49.3,32.81,North,0,0.0,0.0,49,0.00,,,-99.99,pyweather 0.1,2013-08-06 17:29:00,
2013-08-06 10:37:00,70.0,48.8,32.81,North,0,0.0,0.0,47,0.00,,,-99.99,pyweather 0.1,2013-08-06 17:37:00,
2013-08-06 10:45:00,70.9,49.1,32.81,North,0,0.0,0.0,46,0.00,,,-99.99,pyweather 0.1,2013-08-06 17:45:00,
2013-08-06 10:53:00,71.6,47.9,32.81,North,0,0.0,0.0,43,0.00,,,-99.99,pyweather 0.1,2013-08-06 17:53:00,
2013-08-06 11:01:00,73.0,49.2,32.81,North,0,0.0,0.0,43,0.00,,,-99.99,pyweather 0.1,2013-08-06 18:01:00,
2013-08-06 11:09:00,74.8,50.2,32.81,North,0,0.0,0.0,42,0.00,,,-99.99,pyweather 0.1,2013-08-06 18:09:00,
2013-08-06 11:17:00,76.1,48.0,32.81,North,0,0.0,0.0,37,0.00,,,-99.99,pyweather 0.1,2013-08-06 18:17:00,
2013-08-06 11:25:00,78.1,47.5,32.81,North,0,0.0,0.0,34,0.00,,,-99.99,pyweather 0.1,2013-08-06 18:25:00,
2013-08-06 11:33:00,79.3,47.8,32.78,North,0,0.0,0.0,33,0.00,,,-99.99,pyweather 0.1,2013-08-06 18:33:00,
2013-08-06 11:41:00,80.2,48.5,32.78,North,0,0.0,0.0,33,0.00,,,-99.99,pyweather 0.1,2013-08-06 18:41:00,
2013-08-06 11:49:00,81.9,50.0,32.78,North,0,0.0,0.0,33,0.00,,,-99.99,pyweather 0.1,2013-08-06 18:49:00,
2013-08-06 11:57:00,82.6,48.9,32.78,North,0,0.0,0.0,31,0.00,,,-99.99,pyweather 0.1,2013-08-06 18:57:00,
2013-08-06 12:05:00,83.3,48.7,32.78,North,0,0.0,0.0,30,0.00,,,-99.99,pyweather 0.1,2013-08-06 19:05:00,
2013-08-06 12:13:00,84.4,48.7,32.78,North,0,0.0,0.0,29,0.00,,,-99.99,pyweather 0.1,2013-08-06 19:13:00,
2013-08-06 12:21:00,85.6,49.8,32.78,North,0,0.0,0.0,29,0.00,,,-99.99,pyweather 0.1,2013-08-06 19:21:00,
2013-08-06 12:29:00,86.0,49.1,32.78,North,0,0.0,0.0,28,0.00,,,-99.99,pyweather 0.1,2013-08-06 19:29:00,
2013-08-06 12:37:00,86.0,49.1,32.78,North,0,0.0,0.0,28,0.00,,,-99.99,pyweather 0.1,2013-08-06 19:37:00,
2013-08-06 12:45:00,86.9,49.9,32.78,North,0,0.0,0.0,28,0.00,,,-99.99,pyweather 0.1,2013-08-06 19:45:00,
2013-08-06 12:53:00,86.5,48.6,32.78,North,0,0.0,0.0,27,0.00,,,-99.99,pyweather 0.1,2013-08-06 19:53:00,
2013-08-06 13:01:00,86.9,48.9,32.78,North,0,0.0,0.0,27,0.00,,,-99.99,pyweather 0.1,2013-08-06 20:01:00,
2013-08-06 13:09:00,87.6,50.5,32.78,North,0,0.0,0.0,28,0.00,,,-99.99,pyweather 0.1,2013-08-06 20:09:00,
2013-08-06 13:17:00,88.2,47.9,32.78,North,0,0.0,0.0,25,0.00,,,-99.99,pyweather 0.1,2013-08-06 20:17:00,
2013-08-06 13:25:00,87.6,49.5,32.78,North,0,0.0,0.0,27,0.00,,,-99.99,pyweather 0.1,2013-08-06 20:25:00,
2013-08-06 13:33:00,88.0,48.8,32.78,North,0,0.0,0.0,26,0.00,,,-99.99,pyweather 0.1,2013-08-06 20:33:00,
2013-08-06 13:41:00,88.0,47.8,32.78,North,0,0.0,0.0,25,0.00,,,-99.99,pyweather 0.1,2013-08-06 20:41:00,
2013-08-06 13:49:00,88.7,47.3,32.78,North,0,0.0,0.0,24,0.00,,,-99.99,pyweather 0.1,2013-08-06 20:49:00,
2013-08-06 13:57:00,88.9,46.3,32.78,North,0,0.0,0.0,23,0.00,,,-99.99,pyweather 0.1,2013-08-06 20:57:00,
2013-08-06 14:05:00,88.7,46.2,32.78,North,0,0.0,0.0,23,0.00,,,-99.99,pyweather 0.1,2013-08-06 21:05:00,
2013-08-06 14:13:00,88.2,45.7,32.78,North,0,0.0,0.0,23,0.00,,,-99.99,pyweather 0.1,2013-08-06 21:13:00,
2013-08-06 14:21:00,89.4,45.6,32.78,North,0,0.0,0.0,22,0.00,,,-99.99,pyweather 0.1,2013-08-06 21:21:00,
2013-08-06 14:29:00,89.8,45.9,32.78,North,0,0.0,0.0,22,0.00,,,-99.99,pyweather 0.1,2013-08-06 21:29:00,
2013-08-06 14:37:00,89.8,44.7,32.78,North,0,0.0,0.0,21,0.00,,,-99.99,pyweather 0.1,2013-08-06 21:37:00,
2013-08-06 14:45:00,90.0,44.8,32.78,North,0,0.0,0.0,21,0.00,,,-99.99,pyweather 0.1,2013-08-06 21:45:00,
2013-08-06 14:54:00,89.2,44.2,32.78,North,0,0.0,0.0,21,0.00,,,-99.99,pyweather 0.1,2013-08-06 21:54:00,
2013-08-06 15:02:00,89.1,44.1,32.78,North,0,0.0,0.0,21,0.00,,,-99.99,pyweather 0.1,2013-08-06 22:02:00,
2013-08-06 15:10:00,89.6,43.3,32.78,North,0,0.0,0.0,20,0.00,,,-99.99,pyweather 0.1,2013-08-06 22:10:00,
2013-08-06 15:18:00,89.1,41.5,32.78,North,0,0.0,0.0,19,0.00,,,-99.99,pyweather 0.1,2013-08-06 22:18:00,
2013-08-06 15:26:00,89.1,42.8,32.78,North,0,0.0,0.0,20,0.00,,,-99.99,pyweather 0.1,2013-08-06 22:26:00,
2013-08-06 15:34:00,88.7,41.2,32.75,North,0,0.0,0.0,19,0.00,,,-99.99,pyweather 0.1,2013-08-06 22:34:00,
2013-08-06 15:42:00,88.9,41.3,32.75,North,0,0.0,0.0,19,0.00,,,-99.99,pyweather 0.1,2013-08-06 22:42:00,
2013-08-06 15:50:00,88.7,41.2,32.75,North,0,0.0,0.0,19,0.00,,,-99.99,pyweather 0.1,2013-08-06 22:50:00,
2013-08-06 15:58:00,88.7,41.2,32.75,North,0,0.0,0.0,19,0.00,,,-99.99,pyweather 0.1,2013-08-06 22:58:00,
2013-08-06 16:06:00,88.5,41.0,32.75,North,0,0.0,0.0,19,0.00,,,-99.99,pyweather 0.1,2013-08-06 23:06:00,
2013-08-06 16:14:00,88.3,39.5,32.75,North,0,0.0,0.0,18,0.00,,,-99.99,pyweather 0.1,2013-08-06 23:14:00,
2013-08-06 16:22:00,88.0,39.2,32.75,North,0,0.0,0.0,18,0.00,,,-99.99,pyweather 0.1,2013-08-06 23:22:00,
2013-08-06 16:30:00,88.0,39.2,32.75,North,0,0.0,0.0,18,0.00,,,-99.99,pyweather 0.1,2013-08-06 23:30:00,
2013-08-06 16:38:00,87.8,39.1,32.75,North,0,0.0,0.0,18,0.00,,,-99.99,pyweather 0.1,2013-08-06 23:38:00,
2013-08-06 16:46:00,87.4,40.2,32.75,North,0,0.0,0.0,19,0.00,,,-99.99,pyweather 0.1,2013-08-06 23:46:00,
2013-08-06 16:54:00,86.9,39.7,32.75,North,0,0.0,0.0,19,0.00,,,-99.99,pyweather 0.1,2013-08-06 23:54:00,
2013-08-06 17:02:00,86.4,39.3,32.75,North,0,0.0,0.0,19,0.00,,,-99.99,pyweather 0.1,2013-08-07 00:02:00,
2013-08-06 17:10:00,86.0,39.0,32.75,North,0,0.0,0.0,19,0.00,,,-99.99,pyweather 0.1,2013-08-07 00:10:00,
2013-08-06 17:18:00,85.6,38.7,32.75,North,0,0.0,0.0,19,0.00,,,-99.99,pyweather 0.1,2013-08-07 00:18:00,
2013-08-06 17:26:00,85.5,38.5,32.75,North,0,0.0,0.0,19,0.00,,,-99.99,pyweather 0.1,2013-08-07 00:26:00,
2013-08-06 17:34:00,85.3,38.4,32.75,North,0,0.0,0.0,19,0.00,,,-99.99,pyweather 0.1,2013-08-07 00:34:00,
2013-08-06 17:42:00,85.1,38.2,32.75,North,0,0.0,0.0,19,0.00,,,-99.99,pyweather 0.1,2013-08-07 00:42:00,
2013-08-06 17:50:00,84.9,38.1,32.75,North,0,0.0,0.0,19,0.00,,,-99.99,pyweather 0.1,2013-08-07 00:50:00,
2013-08-06 17:58:00,84.7,38.0,32.75,North,0,0.0,0.0,19,0.00,,,-99.99,pyweather 0.1,2013-08-07 00:58:00,
2013-08-06 18:06:00,84.9,38.1,32.75,North,0,0.0,0.0,19,0.00,,,-99.99,pyweather 0.1,2013-08-07 01:06:00,
2013-08-06 18:14:00,84.7,38.0,32.75,North,0,0.0,0.0,19,0.00,,,-99.99,pyweather 0.1,2013-08-07 01:14:00,
2013-08-06 18:22:00,84.4,37.7,32.75,North,0,0.0,0.0,19,0.00,,,-99.99,pyweather 0.1,2013-08-07 01:22:00,
2013-08-06 18:30:00,84.2,37.5,32.75,North,0,0.0,0.0,19,0.00,,,-99.99,pyweather 0.1,2013-08-07 01:30:00,
2013-08-06 18:38:00,83.7,38.4,32.72,North,0,0.0,0.0,20,0.00,,,-99.99,pyweather 0.1,2013-08-07 01:38:00,
2013-08-06 18:46:00,83.3,38.1,32.72,North,0,0.0,0.0,20,0.00,,,-99.99,pyweather 0.1,2013-08-07 01:46:00,
2013-08-06 18:54:00,82.9,37.8,32.72,North,0,0.0,0.0,20,0.00,,,-99.99,pyweather 0.1,2013-08-07 01:54:00,
2013-08-06 19:02:00,82.8,37.6,32.72,North,0,0.0,0.0,20,0.00,,,-99.99,pyweather 0.1,2013-08-07 02:02:00,
2013-08-06 19:10:00,82.4,38.6,32.72,North,0,0.0,0.0,21,0.00,,,-99.99,pyweather 0.1,2013-08-07 02:10:00,
2013-08-06 19:18:00,81.9,38.1,32.72,North,0,0.0,0.0,21,0.00,,,-99.99,pyweather 0.1,2013-08-07 02:18:00,
2013-08-06 19:26:00,81.3,38.9,32.72,North,0,0.0,0.0,22,0.00,,,-99.99,pyweather 0.1,2013-08-07 02:26:00,
2013-08-06 19:34:00,80.8,38.4,32.72,North,0,0.0,0.0,22,0.00,,,-99.99,pyweather 0.1,2013-08-07 02:34:00,
2013-08-06 19:42:00,80.2,40.2,32.72,North,0,0.0,0.0,24,0.00,,,-99.99,pyweather 0.1,2013-08-07 02:42:00,
2013-08-06 19:50:00,79.2,41.4,32.72,North,0,0.0,0.0,26,0.00,,,-99.99,pyweather 0.1,2013-08-07 02:50:00,
2013-08-06 19:58:00,78.3,43.4,32.72,North,0,0.0,0.0,29,0.00,,,-99.99,pyweather 0.1,2013-08-07 02:58:00,
2013-08-06 20:06:00,77.5,43.7,32.72,North,0,0.0,0.0,30,0.00,,,-99.99,pyweather 0.1,2013-08-07 03:06:00,
2013-08-06 20:14:00,77.0,44.1,32.72,North,0,0.0,0.0,31,0.00,,,-99.99,pyweather 0.1,2013-08-07 03:14:00,
2013-08-06 20:22:00,76.6,43.8,32.72,North,0,0.0,0.0,31,0.00,,,-99.99,pyweather 0.1,2013-08-07 03:22:00,
2013-08-06 20:30:00,76.1,43.3,32.72,North,0,0.0,0.0,31,0.00,,,-99.99,pyweather 0.1,2013-08-07 03:30:00,
2013-08-06 20:38:00,75.4,42.7,32.72,North,0,0.0,0.0,31,0.00,,,-99.99,pyweather 0.1,2013-08-07 03:38:00,
2013-08-06 20:46:00,74.8,43.0,32.72,North,0,0.0,0.0,32,0.00,,,-99.99,pyweather 0.1,2013-08-07 03:46:00,
2013-08-06 20:54:00,74.7,43.7,32.72,North,0,0.0,0.0,33,0.00,,,-99.99,pyweather 0.1,2013-08-07 03:54:00,
2013-08-06 21:02:00,74.1,44.0,32.75,North,0,0.0,0.0,34,0.00,,,-99.99,pyweather 0.1,2013-08-07 04:02:00,
2013-08-06 21:10:00,73.8,43.7,32.75,North,0,0.0,0.0,34,0.00,,,-99.99,pyweather 0.1,2013-08-07 04:10:00,
2013-08-06 21:18:00,73.4,43.3,32.75,North,0,0.0,0.0,34,0.00,,,-99.99,pyweather 0.1,2013-08-07 04:18:00,
2013-08-06 21:26:00,73.2,43.2,32.75,North,0,0.0,0.0,34,0.00,,,-99.99,pyweather 0.1,2013-08-07 04:26:00,
2013-08-06 21:34:00,72.7,43.5,32.75,North,0,0.0,0.0,35,0.00,,,-99.99,pyweather 0.1,2013-08-07 04:34:00,
2013-08-06 21:42:00,71.8,43.4,32.75,North,0,0.0,0.0,36,0.00,,,-99.99,pyweather 0.1,2013-08-07 04:42:00,
2013-08-06 21:50:00,71.2,43.7,32.75,North,0,0.0,0.0,37,0.00,,,-99.99,pyweather 0.1,2013-08-07 04:50:00,
2013-08-06 21:58:00,71.1,44.2,32.75,North,0,0.0,0.0,38,0.00,,,-99.99,pyweather 0.1,2013-08-07 04:58:00,
2013-08-06 22:06:00,70.3,44.9,32.75,North,0,0.0,0.0,40,0.00,,,-99.99,pyweather 0.1,2013-08-07 05:06:00,
2013-08-06 22:14:00,69.6,45.5,32.75,North,0,0.0,0.0,42,0.00,,,-99.99,pyweather 0.1,2013-08-07 05:14:00,
2013-08-06 22:22:00,69.1,45.7,32.75,North,0,0.0,0.0,43,0.00,,,-99.99,pyweather 0.1,2013-08-07 05:22:00,
2013-08-06 22:30:00,68.7,45.3,32.75,North,0,0.0,0.0,43,0.00,,,-99.99,pyweather 0.1,2013-08-07 05:30:00,
2013-08-06 22:38:00,68.5,44.6,32.75,North,0,0.0,0.0,42,0.00,,,-99.99,pyweather 0.1,2013-08-07 05:38:00,
2013-08-06 22:46:00,68.2,43.6,32.75,North,0,0.0,0.0,41,0.00,,,-99.99,pyweather 0.1,2013-08-07 05:46:00,
2013-08-06 22:55:00,68.0,44.1,32.75,North,0,0.0,0.0,42,0.00,,,-99.99,pyweather 0.1,2013-08-07 05:55:00,
2013-08-06 23:03:00,67.6,44.4,32.75,North,0,0.0,0.0,43,0.00,,,-99.99,pyweather 0.1,2013-08-07 06:03:00,
2013-08-06 23:11:00,66.9,44.3,32.75,North,0,0.0,0.0,44,0.00,,,-99.99,pyweather 0.1,2013-08-07 06:11:00,
2013-08-06 23:19:00,66.6,44.0,32.75,North,0,0.0,0.0,44,0.00,,,-99.99,pyweather 0.1,2013-08-07 06:19:00,
2013-08-06 23:27:00,66.2,44.2,32.75,North,0,0.0,0.0,45,0.00,,,-99.99,pyweather 0.1,2013-08-07 06:27:00,
2013-08-06 23:35:00,66.0,44.7,32.78,North,0,0.0,0.0,46,0.00,,,-99.99,pyweather 0.1,2013-08-07 06:35:00,
2013-08-06 23:43:00,65.7,44.9,32.78,North,0,0.0,0.0,47,0.00,,,-99.99,pyweather 0.1,2013-08-07 06:43:00,
2013-08-06 23:51:00,65.5,44.7,32.75,North,0,0.0,0.0,47,0.00,,,-99.99,pyweather 0.1,2013-08-07 06:51:00,
2013-08-06 23:59:00,65.3,45.1,32.75,North,0,0.0,0.0,48,0.00,,,-99.99,pyweather 0.1,2013-08-07 06:59:00,